Regional Weather Roundup
Issued by NWS Upton, NY

Current Version | Previous Version | Graphics & Text | Print | Product List | Glossary On
Versions: 1 2 3 4 5 6 7 8 9 10 11 12 13 14 15 16 17 18 19 20 21 22 23 24 25 26 27 28 29 30 31 32 33 34 35 36 37 38 39 40 41 42 43 44 45 46 47 48 49 50
000
ASUS41 KOKX 290005
RWROKX

REGIONAL WEATHER ROUNDUP
NATIONAL WEATHER SERVICE NEW YORK NY
800 PM EDT THU JUL 28 2016

NOTE: "FAIR" INDICATES FEW OR NO CLOUDS BELOW 12,000 FEET WITH NO
SIGNIFICANT WEATHER AND/OR OBSTRUCTIONS TO VISIBILITY.

NYZ071-072-176-178-NJZ106-104-290100-
NEW YORK CITY METRO AREA

CITY           SKY/WX    TMP DP  RH WIND       PRES   REMARKS
Central Park   CLOUDY    80  67  64 W7        29.90F
LaGuardia APRT CLOUDY    83  66  56 SW9       29.86F
Kennedy INTL   CLOUDY    80  69  69 SW9       29.87F
Newark/Liberty LGT RAIN  80  67  64 W7        29.86F
Bronx Bot Gard   N/A     81  66  61 NW3       29.88S
Wall St Helipt CLOUDY    79  70  73 W6        29.87F
Teterboro      CLOUDY    81  67  62 W8        29.86F
$$

NYZ177-179-078>081-290100-
LONG ISLAND NEW YORK

CITY           SKY/WX    TMP DP  RH WIND       PRES   REMARKS
Farmingdale    CLOUDY    80  70  71 SW7       29.87F
MacArthur/ISP  CLOUDY    80  75  84 SW12      29.86F
Shirley        CLOUDY    79  75  87 SW8       29.87F
Riverhead      NOT AVBL
Westhampton    CLOUDY    78  74  87 SW6       29.89F
Southhampton     N/A     77  75  94 SW3       29.83F
Bridgehampton    N/A     79  73  83 S1        29.86F
East Hampton   FAIR      77  74  91 SW6       29.86F
Montauk          N/A     77  75  93 S5        29.89S
$$

NYZ052-065-067-290100-
HUDSON VALLEY

CITY           SKY/WX    TMP DP  RH WIND       PRES   REMARKS
White Plains   CLOUDY    81  68  64 W7        29.89R
Newburgh       PTCLDY    73  72  94 SW12      29.91R
Montgomery     LGT RAIN  74  71  91 S10       29.88S
Poughkeepsie   MOCLDY    82  67  60 SW10G16   29.85S
Albany         CLOUDY    80  65  59 CALM      29.86R
$$

NJZ001-105-106-008-010-013-015-019>022-104-290100-
NEW JERSEY

CITY           SKY/WX    TMP DP  RH WIND       PRES   REMARKS
Newark/Liberty LGT RAIN  80  67  64 W7        29.86F
Teterboro      CLOUDY    81  67  62 W8        29.86F
Caldwell       MOCLDY    79  71  76 NW3       29.88S
Morristown     NOT AVBL
Somerville     CLOUDY    77  73  87 CALM      29.86S
Linden         FAIR      79  65  63 W7        29.88F
Sussex         LGT RAIN  73  72  96 CALM      29.90F FOG
Abdover          N/A     75  70  84 CALM      29.90F
Trenton        CLOUDY    75  71  87 CALM      29.86F
Millville      LGT RAIN  74  71  91 SE9       29.85F
Atlantic City  LGT RAIN  75  72  90 SE7       29.87F FOG
Wrightstown    NOT AVBL
Toms River     MOCLDY    74  72  93 CALM      29.87F
Belmar         CLOUDY    74  70  87 SW3       29.88F
$$

PAZ047>061-062-071-290100-
EASTERN PENNSYLVANIA

CITY           SKY/WX    TMP DP  RH WIND       PRES   REMARKS
Philadelphia   CLOUDY    76  72  87 SE6       29.87S
Allentown      CLOUDY    75  72  90 CALM      29.90R
Scranton       MOCLDY    78  67  68 VRB3      29.90R
$$

CTZ002-004>006-009-010-012-RIZ004-006-007-MAZ004-011-015-290100-
SOUTHERN NEW ENGLAND
 IN CT

CITY           SKY/WX    TMP DP  RH WIND       PRES   REMARKS
Bradley INTL   CLOUDY    85  65  51 S13       29.85S
Hartford       CLOUDY    86  70  58 S10       29.84S HX  90
Danbury        CLOUDY    81  67  62 SW7       29.89S
Wtrbury/Oxford MOCLDY    81  64  57 SW9       29.92S
Bridgeport     CLOUDY    82  72  71 SW8       29.87S
Meriden        CLOUDY    84  70  62 S5        29.86S
New Haven      CLOUDY    79  72  79 S6        29.87S
Chester        FAIR      79  72  78 SW6G12    29.89S
Groton         PTCLDY    77  72  84 CALM      29.87S
Wilimantic     PTCLDY    83  70  64 S5        29.88R

 IN RI

CITY           SKY/WX    TMP DP  RH WIND       PRES   REMARKS
Providence     MOCLDY    80  71  74 S9        29.88R
Block Island   CLOUDY    77  75  93 S9        29.89F
Westerly       MOCLDY    78  72  81 S8        29.88F HAZE
 IN MA

CITY           SKY/WX    TMP DP  RH WIND       PRES   REMARKS
Boston         CLOUDY    83  66  56 S14       29.85R
Worchester     LGT RAIN  72  66  81 SW14      29.92R
Westfield      CLOUDY    86  62  44 SE5       29.84S
Provincetown   CLOUDY    76  71  85 S10       29.89R
Nantucket      CLEAR     71  68  90 S8        29.90F
$$

ANZ330-335-338-340-345-350-353-355-290100-
COASTAL MARINE OBSERVATIONS


STATION/POSITION TIME  SKY/WX   TEMP    WIND        PRES    VSBY  WAVE
                                AIR SEA DIR/SP/G                  HT/PER
                 (UTC)          (F)     (DEG/KT/KT) (MB)    (MI)  (FT/S)
NY HARB ENTRANCE 2250            79 76  220/ 12/ 16 1011.4          2/ 3
20S FIRE ISLAND  2250            78 78  210/  8/ 10 1011.5          1/ 6
GREAT SOUTH BAY  2300            79 83  220/ 10/ 12   N/A
23 SSW MONTAUK P 2250            76 73  220/  6/  8 1012.3          1/ 8
15 E BARNEGAT LI 2300               79                N/A           1/ 6
HUDSON CANYON    2250            80 81              1012.0          1/ 8
KINGS POINT      2300               74                N/A
EXECUTION ROCKS  NOT AVBL
CENTRAL LI SOUND NOT AVBL
EASTERN LI SOUND NOT AVBL
ROBBINS REEF     2312                   250/ 13/ 15   N/A
$$


>>>>>>>>>>>>>>>>>>>>>>>>>>>> KEY <<<<<<<<<<<<<<<<<<<<<<<<<<<
>                                                          <
>     SKY/WX - Sky Condition/Present Weather               <
>     TMP    - Temperature in Fahrenheit                   <
>     DP     - Dew Point in Fahrenheit                     <
>     RH     - Relative Humidity in Percent                <
>     WIND   - Direction (from) and Speed in MPH           <
>     PRES   - Mean Sea Level Pressure (inches of Hg)      <
>     WCI    - Wind Chill Index                            <
>     VSB    - VISIBILITY IN MILES                         <
>     HX     - HEAT INDEX                                  <
>     TC     - TEMPERATURE IN CELSIUS                      <
>     VRB    - VARIABLE WIND DIRECTION                     <
>                                                          <
>>>>>>>>>>>>>>>>>>>>>>>>>>>> KEY <<<<<<<<<<<<<<<<<<<<<<<<<<<



USA.gov is the U.S. government's official web portal to all federal, state and local government web resources and services.